This is the latest recevied weather packets stored in our database for station/object DK4DAX-2. If no packets are shown the sender has not sent any weather packets the latest 10 day(s).
| Time | Temp. | Humidity | Pressure | Rain* | Wind** | Luminosity | Snow |
|---|---|---|---|---|---|---|---|
| 1777504502 | 12.22° C | 24% | 1020.1 hPa | 0 mm | - | - | - |
| 1777503602 | 12.22° C | 23% | 1020.1 hPa | 0 mm | - | - | - |
| 1777502702 | 12.78° C | 23% | 1019.7 hPa | 0 mm | - | - | - |
| 1777501803 | 12.78° C | 24% | 1019.6 hPa | 0 mm | - | - | - |
| 1777500902 | 13.33° C | 23% | 1019.6 hPa | 0 mm | - | - | - |
| 1777500003 | 13.33° C | 23% | 1019.7 hPa | 0 mm | - | - | - |
| 1777499102 | 13.89° C | 22% | 1019.5 hPa | 0 mm | - | - | - |
| 1777498203 | 13.89° C | 21% | 1019.2 hPa | 0 mm | - | - | - |
| 1777497302 | 14.44° C | 21% | 1019.1 hPa | 0 mm | - | - | - |
| 1777496402 | 15° C | 20% | 1018.9 hPa | 0 mm | - | - | - |
| 1777495503 | 15° C | 19% | 1018.8 hPa | 0 mm | - | - | - |
| 1777494602 | 15.56° C | 18% | 1018.8 hPa | 0 mm | - | - | - |
| 1777493702 | 15.56° C | 18% | 1018.5 hPa | 0 mm | - | - | - |
| 1777492803 | 15.56° C | 18% | 1018.7 hPa | 0 mm | - | - | - |
| 1777491902 | 16.11° C | 17% | 1018.3 hPa | 0 mm | - | - | - |
| 1777491002 | 16.67° C | 17% | 1018 hPa | 0 mm | - | - | - |
| 1777490102 | 16.67° C | 18% | 1017.6 hPa | 0 mm | - | - | - |
| 1777489203 | 17.22° C | 17% | 1017.5 hPa | 0 mm | - | - | - |
| 1777488302 | 17.78° C | 17% | 1017.1 hPa | 0 mm | - | - | - |
| 1777487403 | 18.33° C | 15% | 1017 hPa | 0 mm | - | - | - |
| 1777486502 | 18.89° C | 15% | 1016.8 hPa | 0 mm | - | - | - |
| 1777485602 | 19.44° C | 15% | 1016.4 hPa | 0 mm | - | - | - |
| 1777484703 | 19.44° C | 14% | 1016.4 hPa | 0 mm | - | - | - |
| 1777483802 | 20° C | 14% | 1016.2 hPa | 0 mm | - | - | - |
| 1777482902 | 20° C | 14% | 1016 hPa | 0 mm | - | - | - |
* Rain latest hour (hover to see other rain measurements)
** Current wind speed in m/s (hover to see current wind gust speed)